Theta_e
323 319 316 315 319 320 319 323 320 321 325 324 323 325 330 332 332 337 337 339 337 335 335 336 333 335 333 335 332 330 329 327 325 323 321 319 319 320 321 321 321 321 321 322 322 322 322 320 320
322 323 315 318 319 318 319 320 321 323 325 324 325 326 328 334 335 339 340 339 336 336 335 336 334 334 335 333 330 329 329 324 320 319 318 318 318 320 320 320 319 320 320 320 320 321 320 319 319
326 330 318 319 318 317 320 319 320 323 322 323 326 325 328 336 336 336 338 338 337 336 336 336 335 336 334 330 330 329 327 320 313 312 318 319 319 318 319 318 318 318 319 319 318 319 318 318 318
323 320 317 318 318 318 318 318 319 323 322 322 325 328 329 331 330 337 338 338 337 336 335 335 336 335 332 331 330 328 323 314 311 312 317 317 317 317 317 316 316 317 318 317 318 318 317 318 317
321 323 323 322 316 314 313 314 317 323 323 323 321 325 330 334 336 336 339 338 337 335 335 336 335 333 330 330 328 326 316 309 309 310 311 312 315 316 315 315 316 317 316 317 317 318 318 318 318
324 322 329 330 320 314 313 313 314 321 321 321 323 325 333 334 336 337 338 338 337 336 336 336 334 331 330 328 327 318 309 308 310 310 310 309 310 310 311 310 315 316 316 317 317 319 318 318 318
322 328 326 324 319 314 314 314 316 321 321 320 321 326 333 334 335 337 338 338 336 335 336 333 331 329 329 328 319 311 308 309 310 310 310 309 310 310 310 309 310 314 315 316 317 317 318 317 316
317 318 322 322 318 314 315 314 314 318 317 318 321 327 335 333 335 336 335 334 335 333 332 330 329 328 326 321 312 309 309 310 310 310 310 310 310 309 309 310 309 311 312 313 316 316 315 315 316
319 324 321 323 317 315 314 315 313 314 323 327 327 325 329 333 334 335 335 334 333 331 330 328 328 327 322 315 309 309 310 310 310 310 310 312 311 311 311 309 310 311 312 313 315 315 315 315 316
323 326 321 314 314 314 313 314 312 314 318 322 329 322 324 332 334 335 335 334 330 330 329 328 327 322 317 310 309 310 310 311 311 311 312 311 310 309 310 311 311 312 313 314 315 315 316 316 316
316 326 317 315 314 313 312 313 312 313 316 314 316 316 313 317 318 327 331 332 331 329 327 326 323 319 312 310 310 311 312 313 312 312 310 310 311 312 313 313 314 314 315 316 317 317 317 316 317
317 316 317 317 315 312 313 313 313 313 312 311 313 313 313 313 312 312 313 315 327 328 326 324 318 315 311 311 311 312 312 312 312 311 310 311 312 313 313 313 314 315 316 316 316 316 317 316 316
317 316 315 316 312 312 312 313 313 312 312 312 312 313 313 313 312 312 312 313 316 326 324 321 316 313 311 311 311 312 312 312 310 310 310 311 312 312 312 313 313 314 315 316 316 316 316 316 315
317 317 317 317 312 311 314 312 313 311 311 313 313 313 312 312 312 312 312 313 314 323 322 316 313 311 310 311 312 312 311 310 309 310 311 311 312 312 312 311 312 313 315 315 315 316 316 316 315
318 320 319 318 315 313 315 316 314 310 311 313 313 313 311 309 309 309 311 312 316 314 316 312 310 310 311 311 312 311 309 309 310 310 311 311 312 311 310 311 311 312 314 314 315 315 316 316 315
320 320 321 320 316 312 314 318 313 310 312 314 313 312 310 308 307 307 309 310 309 308 309 309 310 310 311 312 311 310 309 309 310 310 312 311 310 310 310 311 311 311 311 313 314 314 315 315 315
318 324 323 322 318 314 314 318 312 309 312 314 313 311 309 309 307 306 306 307 308 308 309 309 310 310 312 311 311 310 309 309 310 311 312 311 310 310 310 310 310 311 311 311 312 313 314 314 314
324 324 323 324 320 317 316 317 312 310 312 313 312 310 309 308 306 305 304 304 305 306 308 309 309 310 310 311 311 311 310 309 310 310 309 310 310 310 310 310 310 311 311 312 311 313 313 314 313
319 318 324 320 317 317 319 318 313 311 312 313 311 310 309 307 304 304 303 303 304 304 305 306 308 309 311 311 312 311 311 311 311 309 310 310 311 311 311 312 312 312 312 312 313 313 314 314 313
318 319 320 320 316 315 316 317 313 311 312 313 312 310 308 306 305 303 302 302 303 303 303 304 305 307 309 310 310 310 310 308 309 309 309 309 309 309 309 310 311 311 311 312 312 312 313 313 313
316 318 320 321 318 313 316 318 315 311 309 309 310 309 308 307 305 303 301 300 300 300 300 300 302 304 306 309 309 309 309 309 307 306 306 306 306 306 307 307 308 308 308 309 309 310 310 313 312
317 314 318 316 318 323 316 328 319 314 311 310 309 308 307 305 302 301 300 299 298 297 299 299 301 302 305 305 307 307 307 305 302 302 302 303 304 304 305 305 306 306 304 304 304 305 305 306 305
316 314 317 319 319 319 317 321 322 313 314 311 310 308 307 304 302 300 298 296 296 296 297 297 299 301 303 304 304 303 302 301 300 300 300 299 300 299 299 300 300 300 299 299 300 300 301 301 301
313 314 315 318 319 325 321 320 323 316 315 314 310 308 306 302 300 297 296 294 294 295 296 296 297 300 300 299 299 299 299 298 298 297 298 297 296 295 294 294 294 293 294 295 297 296 298 299 296
313 314 321 323 324 322 315 320 321 315 311 312 311 308 305 302 299 297 296 295 294 294 294 294 294 294 294 294 296 295 295 294 294 294 294 294 294 292 290 290 290 290 290 290 291 291 293 294 291
313 313 318 320 320 318 312 318 318 307 304 305 308 307 303 299 297 295 294 293 291 291 291 291 291 290 290 291 291 291 291 290 290 290 290 290 289 289 288 287 287 287 287 288 288 288 290 291 289
315 316 313 316 312 318 316 313 312 304 303 305 305 302 300 297 295 294 292 290 289 289 289 289 288 287 287 288 287 287 287 287 286 286 286 286 286 286 286 285 285 285 286 286 286 285 286 288 288
315 315 317 319 321 319 317 316 316 309 307 303 301 301 299 296 294 292 290 288 287 286 285 285 285 285 285 285 285 285 285 284 284 284 284 284 284 285 285 284 284 283 284 284 284 284 284 285 284
315 317 316 316 316 319 319 317 312 310 308 304 302 301 298 295 293 292 289 287 285 285 284 283 283 283 283 283 283 283 283 283 282 282 282 283 283 283 283 283 283 282 282 282 282 282 282 283 281
314 314 316 318 317 316 316 316 304 304 304 304 302 299 296 295 293 290 287 285 284 284 283 282 282 282 282 282 282 282 281 281 281 281 281 281 281 282 282 282 282 282 281 281 281 281 281 281 280
Wind_Speed
4 7 10 6 2 3 3 4 1 4 4 1 2 1 6 8 4 3 6 3 12 18 14 12 11 12 8 9 7 6 6 7 8 9 10 11 11 12 12 13 14 14 14 15 14 13 13 14 15
3 3 6 1 1 3 5 2 5 3 7 8 7 5 4 5 5 8 6 7 16 15 14 11 12 10 10 7 5 5 5 7 8 10 11 11 12 11 12 13 14 14 14 14 14 14 13 13 13
6 8 3 2 1 2 4 2 3 4 3 1 4 6 3 4 5 3 5 14 16 14 12 10 11 11 10 8 4 7 7 7 9 11 11 11 11 12 13 13 14 14 14 14 14 14 15 14 14
5 8 3 1 1 1 2 2 0 4 2 1 6 8 5 5 3 4 11 15 15 12 12 12 13 11 6 6 5 7 6 7 9 11 12 12 12 11 13 14 15 14 14 15 14 15 14 16 16
7 3 4 2 1 2 2 3 2 3 3 5 0 5 4 5 5 11 16 15 13 13 14 13 10 7 6 3 2 4 5 8 9 11 12 12 12 12 13 14 14 14 13 14 14 15 15 15 15
3 2 3 4 1 2 2 4 3 1 2 5 6 6 4 2 7 12 15 14 11 14 14 12 8 6 3 3 2 3 6 7 9 11 13 12 12 12 12 13 13 13 12 13 13 14 15 16 16
4 3 3 5 1 5 2 8 1 2 3 6 2 4 5 5 8 13 14 13 13 12 11 9 7 5 3 1 2 4 6 7 9 11 13 13 12 12 12 12 12 12 12 13 13 14 15 17 18
2 3 5 1 1 1 5 5 3 4 6 2 6 4 7 6 9 15 14 13 13 11 10 8 5 4 3 2 3 4 5 7 9 11 13 13 13 12 12 11 11 10 11 12 12 14 18 19 18
1 3 4 8 8 5 8 3 3 4 9 7 7 6 5 11 13 15 16 14 11 10 8 7 4 2 3 3 3 4 6 8 10 11 13 13 11 11 10 11 11 10 10 11 13 16 18 20 18
1 3 6 3 2 2 4 3 5 1 6 10 9 15 13 7 9 10 10 9 8 8 7 5 4 4 3 4 4 5 7 9 10 11 12 11 10 11 11 11 11 11 10 13 15 17 19 17 16
4 2 8 3 2 4 2 5 5 1 8 7 4 8 11 11 11 7 5 4 6 7 6 6 5 5 4 4 4 5 7 7 9 11 12 11 9 10 10 10 10 10 12 12 13 14 14 16 15
3 6 8 6 4 4 3 4 6 12 4 4 4 5 8 10 10 8 6 2 3 6 8 7 7 7 5 5 5 6 6 7 9 10 12 10 10 11 11 11 11 11 13 14 14 14 15 15 14
4 4 4 4 8 10 12 11 7 9 6 5 6 8 9 9 8 7 7 4 1 6 9 8 7 7 6 6 6 6 7 8 9 9 11 11 11 11 11 12 11 11 13 15 16 16 15 16 14
3 7 3 1 6 3 6 4 1 6 3 7 8 9 9 11 11 7 9 6 2 6 11 9 8 7 7 7 7 7 7 8 9 9 11 12 11 12 11 11 13 12 14 15 16 17 16 17 15
4 4 1 1 1 2 9 2 3 3 1 6 8 9 9 11 12 12 11 10 7 8 11 11 9 8 8 8 8 7 8 9 9 9 11 12 12 12 13 14 15 15 13 15 15 17 16 17 16
4 1 8 3 2 3 6 7 3 1 3 5 7 7 8 11 11 11 12 12 12 11 11 11 9 8 9 8 8 8 9 9 9 10 10 11 13 13 13 14 16 16 17 15 16 17 17 18 18
1 4 9 5 3 2 2 7 4 2 4 5 4 6 6 7 10 11 11 12 12 11 10 10 8 7 8 9 9 8 10 10 10 11 12 12 12 12 13 14 15 16 17 19 17 16 16 19 19
9 6 7 10 11 9 9 8 6 4 6 6 4 5 5 6 7 8 10 11 11 11 10 9 7 5 7 8 8 8 10 11 11 13 14 13 13 13 13 13 14 14 18 16 19 15 16 19 20
5 5 7 5 3 7 15 12 9 7 7 8 8 6 6 5 5 7 9 10 11 11 10 9 8 6 5 5 6 8 10 12 12 14 13 13 13 14 15 15 16 16 16 17 17 15 15 19 21
7 3 5 6 2 2 5 12 9 10 8 8 9 8 8 6 4 6 7 9 11 11 10 9 9 9 8 7 9 8 10 13 17 13 14 14 14 14 15 15 16 16 15 17 18 18 15 15 19
6 10 9 4 9 1 2 8 8 8 8 9 9 10 9 9 6 5 6 7 8 10 9 9 9 9 9 9 10 10 9 8 10 12 13 15 14 16 16 16 15 16 19 19 19 19 18 13 16
10 7 11 8 10 4 8 4 8 14 14 14 14 14 12 10 7 6 6 6 7 7 8 7 8 8 9 8 10 10 9 9 7 9 11 13 15 17 17 17 17 18 19 20 18 21 22 20 19
6 6 13 15 9 4 5 5 5 7 14 17 18 17 14 12 11 9 7 5 5 6 7 6 7 9 10 10 11 9 11 9 9 8 9 10 13 15 16 16 16 17 16 16 19 20 20 21 19
6 5 5 3 6 7 14 8 8 8 11 19 19 18 16 14 12 12 9 7 5 6 7 5 7 10 9 8 10 12 11 9 8 9 8 10 11 13 16 17 17 16 16 18 18 18 20 20 20
11 10 3 4 5 6 1 11 13 6 8 9 22 21 19 15 13 12 11 8 6 6 4 6 8 8 6 8 10 12 12 11 11 10 10 10 11 13 15 16 17 18 17 18 18 19 20 21 22
19 17 6 5 4 3 3 7 5 1 1 3 12 18 16 14 11 10 11 10 8 8 7 8 9 7 8 9 11 12 12 12 13 12 11 12 13 13 14 16 17 18 19 19 19 20 19 19 21
11 13 10 1 0 3 5 4 6 4 2 7 13 16 16 13 11 10 11 9 8 8 9 9 10 10 10 13 14 15 15 15 14 13 13 13 12 12 14 16 18 19 19 19 18 20 19 18 19
6 13 8 5 4 6 6 6 9 7 13 11 15 17 16 14 12 10 10 10 9 9 9 11 11 12 12 14 15 15 16 16 15 15 15 14 14 14 15 17 18 19 19 18 19 19 19 20 19
7 7 7 4 9 3 3 4 1 2 10 18 17 16 16 14 13 12 12 13 12 12 11 13 13 13 14 15 16 17 16 16 15 15 14 14 14 14 15 16 17 18 18 18 18 18 18 20 20
17 20 20 10 6 6 9 9 4 2 3 12 15 16 16 15 13 15 16 14 14 14 13 13 13 14 15 15 15 16 16 16 15 15 14 13 14 14 14 15 17 16 17 17 17 17 17 18 19
Wind_Direction
7 340 355 27 249 261 142 132 10 161 162 357 64 122 87 39 9 47 126 113 138 147 150 153 144 144 140 121 87 39 14 41 40 31 26 23 19 15 12 9 7 5 1 354 350 347 344 342 339
58 27 16 65 50 217 133 113 160 97 107 115 95 96 69 73 55 101 119 124 141 144 144 144 140 136 126 113 64 23 17 29 24 23 18 16 16 12 10 8 5 5 4 2 359 357 353 351 347
106 61 35 40 347 209 133 145 110 119 164 165 108 46 55 69 82 83 113 135 138 137 138 143 143 134 128 92 22 24 28 18 15 12 16 15 16 12 9 9 9 2 3 2 359 358 356 352 348
84 39 18 200 210 80 8 44 131 160 119 105 118 81 97 32 17 87 132 136 133 135 134 138 145 144 121 91 39 5 19 16 16 13 15 12 15 17 12 9 8 11 7 4 1 360 358 353 348
64 91 69 37 47 347 314 331 298 207 127 109 203 114 71 46 93 119 130 133 128 132 140 141 140 118 89 35 26 342 22 19 13 10 7 5 11 11 10 12 16 14 12 10 6 1 357 354 348
89 117 108 174 355 330 334 350 298 242 95 95 101 97 74 88 109 122 130 130 125 132 136 130 121 103 56 14 345 44 26 18 10 5 1 360 2 2 5 10 15 12 12 9 5 5 356 356 351
118 144 112 136 166 276 353 335 320 82 96 54 29 88 102 113 132 134 130 123 118 120 126 118 109 75 19 89 80 51 29 17 10 4 1 357 3 5 7 13 16 12 12 7 5 2 359 356 355
116 101 111 177 172 312 4 334 355 28 70 58 342 106 141 139 142 140 129 128 126 122 120 113 100 72 62 85 52 44 30 16 10 3 1 1 7 8 11 20 20 21 20 13 8 8 5 3 4
290 102 141 170 167 296 357 337 49 20 78 59 25 34 81 136 143 135 129 128 128 126 124 119 107 47 105 87 56 37 33 23 13 5 3 7 6 12 14 25 25 24 23 19 14 6 5 8 356
88 135 154 191 75 307 352 34 358 119 95 64 74 24 36 108 136 139 136 129 129 138 137 127 106 107 98 84 65 43 29 25 17 11 7 7 13 25 29 30 35 32 28 20 12 7 7 1 359
345 158 152 180 302 30 11 67 28 67 60 38 351 344 22 48 51 57 81 125 147 158 141 128 127 113 96 80 58 40 28 26 19 14 11 15 24 27 27 25 22 20 17 11 8 3 1 359 356
111 93 150 156 3 73 30 70 74 51 48 360 30 41 50 49 34 15 360 357 123 165 147 136 128 116 104 85 68 47 36 28 28 15 20 28 29 27 31 24 18 16 11 7 5 0 356 358 0
112 118 67 114 107 84 90 66 84 60 49 71 71 62 54 47 35 11 349 345 262 161 146 132 124 111 100 81 63 54 42 34 32 31 32 34 32 24 24 26 23 18 12 8 5 0 357 358 1
96 109 31 11 135 130 101 60 157 46 50 83 74 60 53 45 32 32 20 10 14 144 146 127 118 110 101 85 67 58 45 41 45 48 41 34 35 28 28 29 26 21 18 12 6 3 360 359 0
130 113 174 72 330 125 111 113 62 344 8 89 80 70 54 48 46 40 35 45 75 94 125 122 109 106 95 86 76 58 52 55 55 55 44 38 39 36 40 34 32 29 16 13 11 8 7 6 8
70 60 191 158 215 137 200 183 138 16 202 103 90 80 67 55 52 51 54 60 69 92 102 111 108 105 97 91 81 72 63 62 59 55 45 43 43 41 38 36 34 28 26 18 15 11 10 8 9
117 158 208 205 226 114 178 228 152 134 189 129 100 92 84 76 59 55 58 63 65 82 92 99 99 97 101 96 85 75 69 65 61 58 50 49 49 44 40 36 33 31 33 31 22 16 16 11 7
184 187 200 204 193 207 198 200 172 164 189 151 148 126 105 85 60 60 62 66 74 76 83 85 86 97 114 108 91 81 75 70 66 61 58 55 51 48 46 43 40 37 35 29 29 22 23 17 4
181 191 187 200 196 218 224 227 203 183 190 175 164 162 135 108 87 74 68 71 73 68 68 67 67 77 123 123 109 86 82 80 71 63 62 60 57 53 43 38 36 37 35 32 26 17 20 19 13
190 202 195 175 128 204 203 233 194 195 208 203 178 190 164 149 126 85 71 69 73 68 58 57 58 61 83 103 104 107 94 84 80 71 63 59 55 54 45 42 44 40 34 32 27 26 26 28 22
211 221 194 234 194 2 139 247 214 215 214 202 197 200 186 169 163 127 84 69 72 68 58 54 61 67 74 95 109 110 106 94 74 63 58 54 54 51 49 47 44 43 44 43 40 39 31 18 22
234 213 192 149 171 221 201 267 216 200 204 209 200 199 190 174 164 149 127 91 79 78 84 77 80 86 93 93 100 105 105 98 75 74 69 60 56 56 54 55 55 56 50 43 41 48 43 46 26
213 173 195 208 227 270 195 248 218 191 214 213 207 200 192 183 170 157 142 117 87 92 96 87 96 96 96 104 114 107 102 99 99 90 76 65 53 51 48 50 51 51 46 46 47 43 43 46 41
147 115 113 119 238 252 226 210 233 193 213 216 202 199 186 183 165 152 145 149 124 92 86 106 103 96 107 105 102 101 99 97 90 75 67 56 49 43 46 49 50 49 46 44 46 47 46 45 45
190 194 197 211 205 244 235 209 244 202 216 219 197 192 184 180 170 160 160 144 140 115 129 109 97 97 108 110 102 101 100 94 84 77 73 68 60 51 46 50 52 53 51 52 54 52 52 48 46
200 208 206 230 215 225 147 229 243 12 61 252 187 183 173 172 172 162 156 159 141 144 136 117 118 122 108 107 102 101 100 93 87 83 84 80 71 61 57 58 59 58 59 57 56 54 53 52 48
189 216 238 252 45 272 226 251 240 176 174 164 164 173 176 171 168 161 151 152 156 147 135 133 137 125 118 113 106 98 96 97 95 93 90 86 83 75 70 67 65 62 60 58 59 57 52 54 47
224 171 191 221 244 244 238 254 249 221 209 188 185 185 177 173 166 156 157 153 154 145 149 141 133 127 122 117 113 110 108 105 102 99 94 92 86 80 76 68 64 62 59 58 58 55 52 55 47
176 194 216 241 230 254 293 237 259 278 192 193 193 189 179 172 168 165 165 164 159 160 155 137 136 133 125 123 120 119 114 111 108 102 98 95 91 83 75 72 68 63 59 57 58 56 53 52 46
228 216 208 219 210 248 267 255 155 185 199 194 188 182 177 176 172 167 168 162 163 163 152 145 144 139 133 130 126 120 118 115 111 105 101 99 93 87 79 75 70 64 62 59 58 56 52 49 45